sat.trackr.live / text

‹ back to catalog

STARLINK-32632

NORAD 62262 · 2024-231V

PAYLOAD ACTIVE UNKNOWN

§ Identity

Operator
Country
US
Launch date
2024-12-05
Launch site
AFWTR
Launch vehicle
Mass (kg)
RCS (m²)

Purposes: comms

External: N2YO · Heavens-Above · Gunter

§ Orbital elements

Epoch: 2026-09-21T16:53:46.175424Z

Period
94.01 min
Inclination
53.1597°
Eccentricity
0.0001024
Mean motion
15.31707946 rev/d
Perigee alt
470.0 km
Apogee alt
471.4 km
Semi-major
6,848.9 km
B*
8.1638e-4
RAAN
28.1269°
Arg perigee
81.5509°
Mean anomaly
278.5608°
Rev number
10,179

§ Raw data

STARLINK-326321 62262U 24231V   26264.70400666  .00025060  00000+0  81638-3 0  99902 62262  53.1597  28.1269 0001024  81.5509 278.5608 15.31707946101790

JSON: /api/v1/satellites/62262 · /tle

For live sub-satellite position, see the globe view (requires WebGL).

§ Visibility from observer

Set your observer location to see the next 7 days of passes ≥ 10°. The values pass through the URL so the page stays shareable.

No JS? Fill the form by hand. The geolocation button needs JavaScript.